アトラス彗星

C/2019 J3 ( ATLAS )

English version
Home page
Updated on November 10, 2019

---------------------------------------------------------------------

・ プロフィール

発見日 2019年5月14日
発見光度 18.7等
発見者 Asteroid Terrestrial-Impact Last Alert System (ATLAS) search program

・ 写真集

・ 軌道要素

Epoch 2019 July 16.0 TT = JDT 2458680.5
T 2019 Aug. 1.90569 TT                                  Williams
q   2.3734128            (2000.0)            P               Q
z  -0.0000829      Peri.   16.55743     -0.17984687     -0.63659002
 +/-0.0000476      Node   270.51702     -0.96597742     -0.02974993
e   1.0001967      Incl.  131.41228     -0.18585675     +0.77062837
From 197 observations 2019 May 14-Aug. 21, mean residual 0".5.

・ 光度変化

        m1 = 12.5 + 5 logΔ + 10.0 log r

---------------------------------------------------------------------

軌道要素はM.P.E.C. 2019-Q135に掲載されたものです。
光度グラフはComet for Windowsで作成したものです。

---------------------------------------------------------------------

Copyright(C) Seiichi Yoshida (comet@aerith.net). All rights reserved.